Simultaneous Nadir Overpasses (SNOs) Predictions

Prediction of SNOs between GOES-16 and METOP-C Satellite Orbit:

Table of predicted SNOs for the next 14.0 days since TLE Epoch: 7/12/2019
Index Date Time (GOES-16) GOES-16 Lat,Lon METOP-C Lat,Lon Distance(km) Time Diff (sec)
1 07/14/2019 02:40:09 0.00, -75.19 -0.37, -76.94 198.49 80
2 07/15/2019 02:16:49 0.01, -75.20 0.73, -71.94 370.79 80
3 07/16/2019 14:38:23 -0.01, -75.21 0.26, -76.51 147.85 80
4 07/17/2019 14:15:03 -0.02, -75.22 -0.84, -71.52 421.88 80
5 07/19/2019 02:36:43 0.02, -75.22 -0.16, -76.11 100.93 80
6 07/20/2019 02:13:24 0.03, -75.23 0.94, -71.12 469.13 80
7 07/21/2019 14:34:57 -0.03, -75.26 0.04, -75.69 48.24 80
8 07/24/2019 02:30:38 0.04, -75.30 0.06, -75.29 2.39 80
9 07/26/2019 14:28:51 -0.03, -75.35 -0.12, -74.85 55.51 80




NCC Satellite Simultaneous Nadir Overpasses (SNOs) Prediction Service
